RH
94 87 80 78 78 79 79 71 72 70 68 68 67 67 67 67 66 65 65 63 63 62 61 59 56 60 64 64 66 71 76 77 78 79 79 78 76 71 72 76 78 76 74
90 88 82 82 82 79 77 72 71 69 68 67 67 66 66 66 66 64 63 62 62 61 60 57 55 62 64 65 67 73 74 75 75 77 81 85 80 70 70 70 74 71 72
86 86 80 85 84 80 73 73 70 69 68 67 66 65 65 65 64 63 63 64 63 61 58 56 56 64 63 66 69 72 71 70 72 73 74 80 79 67 67 68 68 66 66
79 81 85 86 84 77 73 72 70 68 67 67 66 65 64 64 63 63 64 65 65 61 58 56 60 61 64 70 72 71 70 69 72 74 79 76 66 62 60 61 64 66 64
79 84 87 86 84 77 73 71 69 68 67 66 66 65 65 64 65 65 66 66 65 62 58 56 60 60 66 70 73 74 72 72 75 79 85 82 79 60 61 63 63 63 64
86 90 88 86 83 77 72 70 69 68 68 67 66 66 65 65 65 66 67 66 66 62 58 58 59 60 66 67 70 71 72 76 79 89 88 77 74 58 59 59 61 61 62
93 93 87 85 82 76 74 71 71 68 68 67 66 66 65 66 66 67 67 67 64 62 58 59 59 64 65 65 67 70 75 78 88 90 88 82 65 57 58 58 58 60 59
95 95 81 85 82 77 75 75 74 69 67 67 66 66 66 66 67 67 67 65 63 61 58 59 60 65 67 67 69 72 76 76 82 88 87 85 67 57 58 60 60 56 59
87 93 87 81 79 80 78 78 76 73 72 70 67 68 69 71 68 66 66 65 63 60 58 62 66 66 69 70 72 77 81 81 90 77 73 85 62 57 62 63 63 58 58
94 90 90 83 80 87 82 80 78 75 74 74 74 77 79 79 73 69 73 68 64 60 60 64 68 70 74 78 80 84 85 81 80 78 79 78 67 69 64 64 63 63 58
97 94 90 88 87 93 92 77 80 80 79 80 84 87 89 93 88 79 77 74 68 62 65 62 68 77 82 86 85 85 87 96 89 80 69 78 71 67 66 65 64 67 60
96 97 90 91 89 94 81 93 93 88 96 96 95 93 93 92 89 84 82 76 70 70 69 67 77 86 93 98 97 92 98 96 95 89 80 70 65 68 67 67 65 69 68
93 94 92 89 91 94 96 98 99 99 98 97 93 91 91 90 95 92 90 87 79 74 80 79 89 92 95 97 98 98 96 95 88 82 77 82 70 67 69 68 72 69 66
91 96 92 89 87 96 98 97 98 96 98 95 93 85 88 94 89 86 79 73 68 69 74 77 86 94 96 96 96 96 96 97 98 91 80 85 79 67 66 67 66 67 77
95 89 95 92 90 97 97 98 98 97 95 91 89 81 82 81 81 73 72 70 66 69 72 78 86 89 94 95 93 87 90 94 95 96 85 88 85 76 67 64 73 71 69
93 89 88 93 87 95 97 96 95 96 92 85 86 81 72 71 71 72 72 66 63 67 74 75 81 83 86 86 82 75 79 85 90 94 96 85 86 84 76 76 71 67 67
84 80 84 91 87 91 92 93 92 86 78 82 78 79 68 72 72 74 69 65 63 65 73 74 78 76 76 70 75 73 76 80 85 93 95 96 84 89 82 75 70 66 61
81 83 86 82 87 87 87 87 84 82 75 70 73 75 69 70 70 70 65 63 63 67 74 73 72 75 77 74 80 78 79 78 81 88 94 97 94 85 84 80 65 60 65
91 86 89 86 87 86 85 84 83 79 72 67 68 70 68 67 67 64 62 64 62 68 76 70 81 70 75 81 74 78 76 76 73 74 94 95 94 87 81 83 84 77 67
94 90 87 86 83 82 84 88 87 84 77 73 67 68 67 64 65 66 63 58 58 66 78 78 76 80 75 72 59 73 78 75 75 79 85 86 92 91 89 91 92 80 75
98 94 92 90 84 80 82 82 81 76 78 77 73 69 67 68 64 63 63 59 61 63 67 68 75 72 85 78 87 87 86 80 70 73 79 90 92 92 89 87 86 83 86
98 97 96 87 80 77 74 71 73 76 79 75 78 76 70 69 68 61 59 61 64 66 71 71 74 81 89 78 79 85 89 83 78 69 74 76 92 91 83 83 84 86 92
95 97 93 86 79 76 75 78 82 82 86 84 83 82 78 68 67 63 62 62 66 64 67 70 68 79 71 89 74 79 89 92 88 79 72 73 86 95 89 78 77 81 87
90 96 92 85 82 78 77 72 68 64 78 75 76 78 78 74 75 70 68 67 67 69 69 73 71 78 74 84 89 69 82 82 89 82 75 74 81 91 93 78 80 82 90
86 95 90 86 87 82 80 70 76 71 66 69 81 74 74 80 76 72 69 67 62 69 70 70 78 80 73 76 76 77 73 79 84 79 80 79 80 93 95 84 84 86 89
97 94 94 90 84 81 80 76 73 78 79 71 73 72 75 79 79 73 68 65 65 68 70 71 72 79 81 77 80 71 74 74 74 79 81 86 87 88 96 94 84 84 71
Wind_Speed
6 12 20 21 21 21 20 18 17 17 17 17 17 17 16 16 16 16 16 15 15 14 14 14 14 15 14 15 14 15 17 18 17 17 17 15 15 16 17 16 13 11 17
12 13 21 20 21 21 20 19 17 16 17 17 17 17 16 16 16 17 17 16 16 15 15 14 14 15 15 16 14 18 17 17 16 17 14 11 12 14 16 16 15 13 17
14 13 17 20 20 20 19 19 18 17 17 17 17 17 17 16 15 16 17 17 17 16 16 15 15 16 15 15 15 17 16 17 16 15 13 5 6 14 15 15 15 15 15
13 12 13 20 20 21 19 19 18 18 18 18 17 17 16 16 16 16 16 17 17 17 16 16 16 16 15 16 15 17 16 16 15 13 6 6 6 15 15 15 15 16 14
12 11 13 22 21 20 19 19 19 18 18 18 17 17 17 16 16 16 16 16 16 17 16 16 17 15 16 17 15 16 15 15 14 9 6 5 4 12 15 15 14 15 14
9 6 17 22 23 20 19 19 19 18 18 18 18 17 17 16 15 15 15 15 16 16 16 16 16 16 17 16 16 16 15 14 11 6 5 6 4 14 15 14 15 15 15
5 5 10 20 22 20 20 19 18 19 18 18 18 18 17 16 15 14 15 15 15 16 16 16 16 18 16 16 15 15 15 13 6 5 5 4 6 14 14 14 15 15 15
6 5 10 16 19 19 19 18 17 18 18 18 18 17 17 16 15 14 14 15 15 16 16 16 17 18 17 15 15 15 13 11 6 6 4 3 12 13 14 15 12 14 14
8 6 7 10 13 16 18 17 17 17 17 17 17 17 16 15 15 14 14 14 14 15 16 17 17 18 17 17 16 14 12 10 5 2 4 3 11 13 16 14 16 15 15
6 7 7 8 9 6 8 17 16 15 15 15 15 14 13 12 13 13 11 13 15 15 16 17 17 18 17 17 15 13 11 11 5 5 3 3 11 13 16 15 14 15 16
5 8 9 8 5 5 5 10 14 14 13 12 11 13 9 5 6 8 8 10 13 15 17 17 17 17 16 15 14 13 10 3 5 3 2 11 15 15 14 13 14 16 16
10 8 10 8 9 5 6 6 6 6 5 6 6 7 5 6 5 5 6 10 12 13 16 16 19 16 11 5 4 9 3 5 4 4 2 7 11 13 12 13 13 14 18
4 8 10 10 9 7 4 4 3 3 4 4 7 6 5 4 4 4 3 3 4 9 4 6 7 4 7 5 5 4 5 6 3 3 8 11 13 15 15 14 18 17 17
0 4 12 12 9 7 4 4 5 6 4 4 5 7 5 3 4 4 3 4 4 3 5 5 4 5 7 6 7 6 6 5 4 4 8 15 11 15 15 15 16 17 19
7 5 3 12 12 8 6 3 5 5 5 5 5 5 5 5 5 4 4 4 4 4 5 5 5 5 7 6 5 7 6 6 6 4 4 16 16 8 15 16 19 20 20
10 6 7 12 14 12 8 6 5 5 5 6 5 5 6 5 5 5 4 4 4 4 4 6 6 6 4 6 6 6 6 5 6 6 5 6 17 16 16 18 19 18 18
15 21 14 17 14 15 13 9 6 6 7 5 5 6 7 6 6 6 5 4 4 4 7 6 6 6 5 5 7 5 5 6 5 6 5 5 6 16 14 17 18 17 16
13 13 16 17 17 16 13 10 7 7 7 7 6 6 7 7 6 6 5 4 5 4 5 6 6 6 5 5 4 4 4 5 6 6 5 4 5 5 10 17 13 16 16
11 12 18 19 19 17 13 9 7 8 7 7 6 6 9 8 6 6 5 5 5 5 5 7 3 7 6 5 6 4 4 4 5 4 6 6 6 6 5 14 16 13 15
20 21 24 18 17 16 10 5 4 4 3 4 6 6 10 7 8 6 5 6 6 6 5 4 6 3 4 6 7 5 4 4 4 4 5 4 5 6 5 7 6 10 15
7 15 20 17 16 12 11 10 6 8 4 3 3 5 7 6 9 8 6 6 6 7 8 9 5 9 3 4 5 3 4 4 5 4 3 4 5 5 6 6 5 5 6
5 11 10 14 16 13 10 9 4 5 3 3 4 5 7 8 8 8 8 7 7 5 8 9 9 5 3 5 4 3 2 2 3 3 3 3 4 4 5 5 6 6 5
11 15 13 12 13 12 10 6 4 6 4 3 4 3 4 7 8 7 7 7 6 5 8 9 9 6 8 4 6 5 3 3 3 2 3 2 3 3 4 4 5 5 5
13 13 18 15 15 12 12 10 12 10 5 4 5 4 5 7 8 7 7 7 6 4 6 6 5 3 6 7 2 2 4 4 4 3 2 2 2 4 4 3 4 5 5
10 12 14 17 17 16 15 15 11 9 6 5 4 10 9 6 8 8 9 9 9 6 7 9 7 6 6 6 6 3 3 3 3 4 4 2 2 2 2 3 4 3 4
6 8 10 12 15 16 16 15 15 12 10 8 7 7 7 5 6 9 9 9 8 8 8 7 7 7 6 6 3 4 4 4 3 4 4 3 4 2 2 2 3 2 3
Wind_Direction
193 174 170 171 167 151 140 148 142 138 135 131 128 125 123 122 122 118 116 112 109 104 100 101 103 101 103 100 102 95 87 82 81 76 67 60 63 70 70 67 60 59 63
150 165 170 176 160 147 145 149 144 142 138 135 132 129 127 126 125 123 120 115 111 108 105 99 101 110 106 98 105 100 94 89 83 75 67 54 67 70 67 65 62 63 59
162 165 173 165 151 143 153 148 147 145 143 138 135 133 131 128 126 123 119 115 110 105 104 106 108 106 101 107 112 105 95 88 81 75 70 59 71 75 72 63 60 64 61
164 166 174 154 148 144 154 150 150 148 146 141 138 134 132 130 128 123 120 116 112 109 106 107 109 106 104 101 113 101 93 86 81 73 55 52 52 75 70 70 68 63 62
167 169 162 148 146 152 154 153 153 151 148 143 140 137 134 132 128 124 119 116 112 109 107 111 111 106 103 98 103 104 98 90 84 75 69 68 61 90 86 77 71 69 69
168 171 160 151 140 155 157 156 155 152 148 144 143 140 136 131 126 123 119 115 111 109 109 112 112 112 110 104 104 106 100 94 85 73 68 74 97 88 83 79 78 74 71
159 162 165 144 143 157 157 159 157 153 149 148 146 141 136 132 129 126 123 120 116 114 115 117 117 116 111 108 104 101 98 93 87 70 62 66 77 85 85 87 81 77 75
150 138 158 146 143 159 159 158 157 154 152 151 148 142 138 135 132 132 129 125 122 121 123 122 120 115 109 102 99 97 93 87 76 77 62 54 95 93 88 84 82 86 68
148 126 135 146 148 161 158 157 155 155 155 153 150 143 139 135 137 136 131 128 124 124 126 121 115 116 110 106 102 97 86 79 68 56 62 60 103 101 93 91 75 82 79
122 127 135 143 143 159 160 153 151 154 153 154 145 133 126 131 136 133 128 129 126 126 127 120 119 116 111 108 103 91 80 68 56 58 36 87 97 106 97 92 96 95 91
139 144 140 142 120 127 135 150 147 150 152 141 124 113 94 90 97 99 124 123 128 132 129 123 125 114 105 102 98 89 80 63 71 66 32 104 88 85 90 91 101 101 99
167 160 153 134 131 144 152 128 127 124 99 103 103 103 103 106 110 112 115 132 131 129 116 123 121 110 92 75 73 73 62 66 56 42 65 64 99 99 97 101 107 108 98
272 164 146 145 143 145 133 122 103 105 114 113 116 113 112 108 95 95 80 69 78 82 74 88 99 88 95 90 71 62 62 56 39 38 32 46 115 113 96 113 98 98 97
91 217 152 150 155 131 145 149 139 132 127 132 133 132 127 122 122 119 114 108 97 100 111 110 104 103 92 88 93 77 59 56 42 39 33 31 55 113 111 105 102 100 99
221 112 245 167 148 145 146 150 146 145 142 146 140 140 137 137 138 132 131 128 123 124 122 111 115 109 106 96 80 92 77 64 52 38 44 37 31 96 119 120 110 105 88
185 184 217 201 160 153 147 167 171 150 144 150 152 154 151 144 145 144 144 144 134 138 128 127 128 119 98 105 89 85 89 74 68 51 26 30 41 32 106 113 103 96 94
206 196 204 181 178 165 164 167 169 171 156 155 161 155 154 154 156 147 144 148 141 132 115 106 98 98 96 87 92 79 83 74 68 69 48 37 26 34 52 94 94 92 90
202 204 185 177 182 169 171 171 175 174 172 168 162 164 164 162 161 151 149 151 141 125 119 124 131 110 107 111 107 84 82 75 77 67 66 55 34 31 36 48 86 92 98
222 221 179 179 181 172 168 169 176 176 179 178 170 169 175 164 162 156 153 144 145 130 123 138 107 133 129 114 106 96 79 83 81 77 68 61 56 40 37 44 51 90 94
284 210 175 165 181 164 154 133 122 147 178 168 178 179 170 169 162 152 143 146 150 143 132 123 131 96 131 134 110 89 75 75 82 80 87 70 63 59 46 50 38 49 65
352 126 153 158 174 159 160 163 170 185 173 146 157 162 161 158 167 163 153 153 156 157 159 148 127 133 100 130 98 61 60 58 70 75 79 90 77 72 63 55 52 55 40
171 137 153 176 164 165 171 174 163 147 145 150 154 181 177 163 160 170 158 160 157 144 148 160 149 131 98 187 123 107 117 32 44 40 68 94 95 81 74 67 69 67 59
187 165 178 175 165 164 161 118 95 93 80 114 161 176 183 173 166 168 151 154 157 158 170 169 162 152 157 206 184 135 127 183 130 20 40 62 123 105 96 88 81 76 78
192 170 173 174 173 170 161 162 164 173 160 178 153 159 170 162 167 154 156 146 161 153 156 171 172 167 144 181 51 42 81 145 150 130 32 38 71 126 123 102 95 88 84
177 181 177 176 179 174 180 180 172 177 174 152 143 172 177 171 165 164 169 163 176 172 170 171 165 172 174 167 174 153 93 47 81 131 156 158 64 43 90 128 123 114 111
145 168 182 179 180 176 175 181 181 178 159 153 162 176 181 177 171 178 174 175 179 177 175 177 178 178 177 166 151 160 150 166 172 141 111 118 131 36 68 92 92 86 83